Location: Quebec
(46.8000°N, 71.2500°W)
Time: 13:53:10
(UTC-04:00)

ISS - Pass Details

Date: 14 October 2017
Orbit: 401 x 408 km, 51.6° (Epoch: 21 October)

Event Time Altitude Azimuth Distance (km) Brightness Sun altitude
Rises 19:26:08 0° 289° (WNW) 2,325 1.6 -15.6°
Reaches altitude 10° 19:28:32 10° 272° (W) 1,463 0.4 -16.0°
Maximum altitude 19:31:04 21° 222° (SW) 980 -1.5 -16.5°
Drops below altitude 10° 19:33:35 10° 171° (S) 1,459 -1.2 -16.9°
Enters shadow 19:33:40 10° 170° (S) 1,482 -1.1 -16.9°
